Regional Weather Roundup
Issued by NWS Cleveland, OH

Home | Current Version | Previous Version | Graphics & Text | Print | Product List | Glossary On
Versions: 1 2 3 4 5 6 7 8 9 10 11 12 13 14 15 16 17 18 19 20 21 22 23 24 25 26 27 28 29 30 31 32 33 34 35 36 37 38 39 40 41 42 43 44 45 46 47 48 49 50
251
ASUS41 KCLE 251112
RWRCLE
OHIO REGIONAL WEATHER ROUNDUP
NATIONAL WEATHER SERVICE WILMINGTON, OH
700 AM EDT MON JUL 25 2016

NOTE: "FAIR" INDICATES FEW OR NO CLOUDS BELOW 12,000 FEET WITH NO
SIGNIFICANT WEATHER AND/OR OBSTRUCTIONS TO VISIBILITY.

OHZ001>008-015>018-024>027-034-035-043-044-251200-
   NORTHWEST OHIO

CITY           SKY/WX    TMP DP  RH WIND       PRES   REMARKS
DEFIANCE       FAIR      74  66  76 NW6       29.97R
FINDLAY        FAIR      75  68  78 SW6       29.94R
TOLEDO EXPRESS FAIR      72  72 100 W7        29.93S
TOLEDO EXEC    FAIR      76  73  91 W7        29.93R
LIMA           FAIR      73  69  87 SW7       29.98R
$$

OHZ009>014-019>023-028>033-038-089-251200-
   NORTHEAST OHIO

CITY           SKY/WX    TMP DP  RH WIND       PRES   REMARKS
CLE-HOPKINS    MOCLDY    79  72  79 S9        29.93F
CLE-LAKEFRONT  FAIR      81  73  76 S12       29.89F
CUY CO. ARPT   NOT AVBL
LORAIN-ELYRIA  FAIR      74  71  91 SW6       29.93S FOG
ASHTABULA      FAIR      75  73  93 S10       29.92F
AKRON-CANTON   FAIR      73  70  90 S6        29.97F
WOOSTER        FAIR      72  70  93 SW3       29.97F FOG
MANSFIELD      FAIR      76  75  97 SW8       29.98R
YOUNGSTOWN     CLOUDY    73  70  90 S6        29.96F
$$

OHZ042-051>053-060>062-070>072-077>081-251200-
  SOUTHWEST OHIO

CITY           SKY/WX    TMP DP  RH WIND       PRES   REMARKS
CINC-COVINGTON MOCLDY    77  75  93 W3        30.00R FOG
CINC-LUNKEN    FAIR      76  76 100 CALM      29.99R
HAMILTON       FAIR      78  74  87 W3        29.99S
DAYTON         MOCLDY    76  74  93 SW8       29.99S FOG
WRIGHT-PAT AFB FAIR      77  77  99 SW6       29.98R
DAYTON GENERAL FAIR      78  74  87 W5        29.99R
WILMINGTON     FAIR      76  74  93 SW7       30.00R FOG
$$

OHZ036-037-039>041-045>050-054>059-063>069-073>076-082>088-251200-
  CENTRAL AND SOUTHEAST OHIO

CITY           SKY/WX    TMP DP  RH WIND       PRES   REMARKS
COLUMBUS       CLOUDY    76  73  91 S3        29.97S
OSU AIRPORT    FAIR      78  75  90 SW6       29.98R FOG
BOLTON FIELD   FAIR      74  74  99 SW5       29.99R FOG
RICKENBACK AFB FAIR      74  73  97 S6        29.98R
NEWARK         FAIR      74  72  93 S5        29.98R FOG
MARION         FAIR      75  72  90 S8        29.96S FOG
LANCASTER      FAIR      77  74  90 CALM      29.99S
ZANESVILLE     FAIR      76  72  87 CALM      29.99S
NEW PHILLY     FAIR      75  70  84 SE5       29.98F
$$




USA.gov is the U.S. government's official web portal to all federal, state and local government web resources and services.